TITAN 3C TRANSTAGE DEB, 1671

Orbit data source: Space-Track

TITAN 3C TRANSTAGE DEB, 1671 is space debris in LEO originally from a launch on Fri, 15 Oct 1965 UTC launched from the Air Force Eastern Test Range (AFETR). Debris objects in space refer to the collection of defunct objects orbiting the Earth. Examples of debris include non-operational satellites, rocket bodies, and fragments generated from explosions, collisions, or faulty payload assembly.

Loading next visibility...
TITAN 3C TRANSTAGE DEB details
Identifier
1671, 1965-082AJ
Orbit
LEO
Last TLE update1 day ago
Origin
Flag of USUSAF SSD (US)
ManufacturerUnknown
MissionSpacecraft
Bus & MotorUnknown
MassUnknown
Launch date (UTC)
1965-10-15 (59 years ago)
Launch vehicleUnknown
Launch site
Air Force Eastern Test Range (AFETR)
Object type
Payload
Rocket body
Debris
Shape & HBRUnknown
Radar Cross SectionMedium (>0.1 m² and <1 m²)

Expand to show TLE details & history

TLE from 1 day ago
0 TITAN 3C TRANSTAGE DEB
1 01671U 65082AJ  25022.38795085  .00001142  00000-0  25731-3 0  9991
2 01671  32.1601 152.1824 0052846   8.2719 351.8786 14.53349906112012
Epoch: 2025-01-22T09:18Z
Definitive object data (Epoch: 2025-01-22T09:18:38.953Z)
Latitude-0.00001°
Longitude-109.46046°
Altitude676.293 km
Speed7.54 km/s
True Right ascension10h 08m 43s
True Declination0° 00' 00"
Sunlit
Object was in full shadow at TLE epoch
Visualization TLE readout
Latitude-6.21208°
Longitude-126.96802°
Altitude682.374 km
Speed7.534 km/s
Apparent Right ascension07h 41m 06s
Apparent Declination-23° 50' 35"
Sunlit
Object is in full shadow
Visualization observer readout
Local Sidereal Time17:47:26
Azimuth295.343° NW
Elevation-61.209°
Doppler factor1
Orbital elements
Apogee altitude755.806 km
Perigee altitude680.803 km
Semi-major axis7,096.442 km
Eccentricity0.0052846
Inclination32.1601°
RAAN152.1824°
Arg. of periapsis8.2719°
True anomaly351.79249°
Mean anomaly351.8786°
Eccentric anomaly351.8356°
Mean motion3.63063 °/min
BSTAR0.00025731
Orbital period99.16 mins
Loading maneuver chart data...

TITAN 3C TRANSTAGE DEB Visibility forecast

Observer location: undefined°, undefined

Span
Click to sort rows by Start time (UTC) header in descending order
Start Az.
Max El. time (UTC)
Max El. Az.
Max El.
End time (UTC)
End Az.
5 mins2025-01-23 17:08:51.588Z232.277° WSW2025-01-23 17:10:51.588Z206.202° SW16.359°2025-01-23 17:13:51.588Z167.66° S
6 mins2025-01-24 12:42:51.588Z214.091° SW2025-01-24 12:45:51.588Z160.186° S25.185°2025-01-24 12:48:51.588Z116.406° SE
7 mins2025-01-24 14:26:51.588Z237.683° WSW2025-01-24 14:29:51.588Z186.173° SSW28.582°2025-01-24 14:33:51.588Z124.287° SE
6 mins2025-01-24 16:11:51.588Z235.176° WSW2025-01-24 16:14:51.588Z190.304° SSW19.759°2025-01-24 16:17:51.588Z152.591° SSE
|